Location: Waco, TX
(31.5480°N, 97.1670°W)
Time: 02:57:22
(UTC-05:00)

ISS - Pass Details

Date: 21 May 2018
Orbit: 402 x 407 km, 51.6° (Epoch: 27 May)

Event Time Altitude Azimuth Distance (km) Brightness Sun altitude
Rises 06:20:15 0° 303° (WNW) 2,312 -0.3 -2.5°
Reaches altitude 10° 06:22:31 10° 290° (WNW) 1,450 -1.4 -2.0°
Maximum altitude 06:25:18 26° 231° (SW) 825 -2.8 -1.5°
Drops below altitude 10° 06:28:04 10° 172° (S) 1,445 -1.2 -1.0°
Sets 06:30:20 0° 159° (SSE) 2,300 0.0 -0.5°
